Weather Roundup
Issued by NWS

Home | Current Version | Previous Version | Text Only | Print | Product List | Glossary On
Versions: 1 2 3 4 5 6 7 8 9 10 11 12 13 14 15 16 17 18 19 20 21 22 23 24 25 26 27 28 29 30 31 32 33 34 35 36 37 38 39 40 41 42 43 44 45 46 47 48 49 50
000
NZUS93 KARX 231910
HRRWXR

CURRENT HOURLY OBSERVATIONS ACROSS
MUCH OF THE UPPER MISSISSIPPI VALLEY
NATIONAL WEATHER SERVICE LA CROSSE WI
200 PM CDT SUN APR 23 2017


...SOUTHEAST MINNESOTA...


CITY           SKY/WX    TMP DP  RH WIND       PRES   REMARKS
ROCHESTER      SUNNY     69  35  28 W13       30.02F
ROCHESTER/MAYO FAIR      68  34  28 SW7       30.02F
WINONA         SUNNY     70  34  26 W6        30.02F
AUSTIN         SUNNY     68  30  24 SW14      30.02F
ALBERT LEA     SUNNY     66  28  24 SW9       30.01F
DODGE CENTER   SUNNY     66  34  30 SW13      30.02F
PRESTON        SUNNY     66  31  26 SW7       30.04F
OWATONNA       MOSUNNY   70  30  23 SW10G17   30.00F
FARIBAULT      MOSUNNY   68  36  30 CALM      30.01F
$$

...ELSEWHERE IN MINNESOTA...


CITY           SKY/WX    TMP DP  RH WIND       PRES   REMARKS
MINNEAPOLIS    PTSUNNY   64  41  42 CALM      30.01F
INTNL FALLS    CLOUDY    35  12  38 VRB3      30.18F
DULUTH         FLURRIES  34  31  88 E16       30.14F WCI  24
RED WING       SUNNY     68  34  28 NW5       30.00F
REDWOOD FALLS  PTSUNNY   69  33  26 SW15G23   29.95F
MANKATO        MOSUNNY   70  30  22 S10G23    29.98F
WORTHINGTON    MOSUNNY   68  31  25 S18G28    29.98F
FAIRMONT       MOSUNNY   69  27  20 S15G23    29.99F
$$

...SOUTHWEST WISCONSIN...


CITY           SKY/WX    TMP DP  RH WIND       PRES   REMARKS
LA CROSSE      SUNNY     73  37  27 VRB7      30.01F
PRAIRIE DU CHI SUNNY     70  30  22 W10       30.04F
BOSCOBEL       SUNNY     73  34  23 W5        30.04F
LONE ROCK      SUNNY     71  34  25 W14       30.03F
PLATTEVILLE    SUNNY     69  34  27 NW3G9     30.06F
FORT MC COY    SUNNY     69  32  25 W9        30.03F
CAMP DOUGLAS   MOSUNNY   72  37  28 W7        30.02F
MAUSTON-NEW LI CLEAR     69  38  31 W10       30.02F
VIROQUA        FAIR      68  31  24 W8G17     30.04F
WIS DELLS      SUNNY     70  34  26 W8        30.03F
$$

...ELSEWHERE IN WISCONSIN...


CITY           SKY/WX    TMP DP  RH WIND       PRES   REMARKS
MILWAUKEE      MOSUNNY   48  40  73 NE25G33   30.08R
MADISON        MOSUNNY   69  35  28 VRB5      30.04F
GREEN BAY      SUNNY     51  42  71 NE18      30.11F
EAU CLAIRE     SUNNY     62  40  44 VRB5      30.03F
BLACK RVR FLS  FAIR      71  31  23 W6G16     30.01F
MEDFORD        PTSUNNY   58  44  58 N8        30.04F
WAUSAU         SUNNY     62  43  49 NE13      30.03F
WIS RAPIDS     SUNNY     70  37  29 NW13      30.03F
MARSHFIELD     SUNNY     66  40  38 NW8       30.03F
RICE LAKE      CLOUDY    56  38  50 E3        30.07F
$$

...NORTHEAST IOWA...


CITY           SKY/WX    TMP DP  RH WIND       PRES   REMARKS
WATERLOO       SUNNY     70  31  23 SW9       30.05F
DUBUQUE        SUNNY     69  32  25 VRB3      30.06F
DECORAH        SUNNY     68  32  26 VRB7G15   30.04F
MASON CITY     SUNNY     70  30  22 W10G18    30.04F
CHARLES CITY   SUNNY     70  30  23 VRB7G15   30.05F
OELWEIN        SUNNY     70  32  24 W12G18    30.06F
$$

...ELSEWHERE IN IOWA...


CITY           SKY/WX    TMP DP  RH WIND       PRES   REMARKS
DES MOINES     MOSUNNY   70  33  25 S8        30.08F
IOWA CITY      SUNNY     71  32  23 N5        30.09F
FORT DODGE     SUNNY     70  34  26 S14G22    30.05F
MARSHALLTOWN   SUNNY     69  35  28 SW10G16   30.05F
CEDAR RAPIDS   SUNNY     69  34  27 S6        30.06F
$$

...NORTHERN ILLINOIS...


CITY           SKY/WX    TMP DP  RH WIND       PRES   REMARKS
CHICAGO-OHARE  SUNNY     71  25  17 N6        30.06F
CHICAGO-MIDWAY SUNNY     68  30  24 NE8       30.07F
MOLINE         SUNNY     70  33  25 VRB7      30.07F
ROCKFORD       MOSUNNY   70  32  24 SW5       30.08F
PEORIA         SUNNY     69  32  25 E12       30.07F
$$

NOTE: "FAIR" INDICATES FEW OR NO CLOUDS BELOW 12,000 FEET WITH NO
SIGNIFICANT WEATHER AND/OR OBSTRUCTIONS TO VISIBILITY. WIND
SPEEDS ARE IN MILES-PER-HOUR.




USA.gov is the U.S. government's official web portal to all federal, state and local government web resources and services.